sat.trackr.live / text

‹ back to catalog

KUIPER-00100

NORAD 65139 · 2025-171H

PAYLOAD ACTIVE UNKNOWN

§ Identity

Operator
Country
US
Launch date
2025-08-11
Launch site
AFETR
Launch vehicle
Mass (kg)
RCS (m²)

External: N2YO · Heavens-Above · Gunter

§ Orbital elements

Epoch: 2026-05-25T01:28:55.238016Z

Period
97.30 min
Inclination
51.8997°
Eccentricity
0.0000331
Mean motion
14.79941044 rev/d
Perigee alt
629.3 km
Apogee alt
629.7 km
Semi-major
7,007.6 km
B*
2.8437e-4
RAAN
172.8454°
Arg perigee
73.8276°
Mean anomaly
286.2723°
Rev number
4,430

§ Raw data

KUIPER-001001 65139U 25171H   26145.06175044  .00001948  00000+0  28437-3 0  99932 65139  51.8997 172.8454 0000331  73.8276 286.2723 14.79941044 44300

JSON: /api/v1/satellites/65139 · /tle

For live sub-satellite position, see the globe view (requires WebGL).

§ Visibility from observer

Set your observer location to see the next 7 days of passes ≥ 10°. The values pass through the URL so the page stays shareable.

No JS? Fill the form by hand. The geolocation button needs JavaScript.